Previsão horária em Celinnoe

Hoje, 30 Julho, Sexta-feira

Tempo Temperatura Precipitação Vento Pressão Humidade
00:00 +16°C° 0 mm 3 m/s 741 mmHg 54%
01:00 +14°C° 0 mm 3 m/s 741 mmHg 56%
02:00 +14°C° 0 mm 3 m/s 741 mmHg 57%
03:00 +14°C° 0 mm 3 m/s 741 mmHg 57%
04:00 +13°C° 0 mm 3 m/s 741 mmHg 58%
05:00 +15°C° 0 mm 4 m/s 741 mmHg 56%
06:00 +17°C° 0 mm 4 m/s 741 mmHg 54%
07:00 +17°C° 0 mm 5 m/s 741 mmHg 52%
08:00 +20°C° 0 mm 6 m/s 741 mmHg 46%
09:00 +22°C° 0 mm 6 m/s 741 mmHg 40%
10:00 +24°C° 0 mm 7 m/s 741 mmHg 35%
11:00 +22°C° 0 mm 6 m/s 740 mmHg 42%
12:00 +21°C° 0 mm 5 m/s 740 mmHg 49%
13:00 +19°C° 0 mm 5 m/s 740 mmHg 56%
14:00 +19°C° 0 mm 5 m/s 740 mmHg 56%
15:00 +20°C° 0 mm 6 m/s 739 mmHg 56%
16:00 +20°C° 0 mm 7 m/s 739 mmHg 56%
17:00 +21°C° 0 mm 6 m/s 738 mmHg 54%
18:00 +21°C° 0 mm 6 m/s 738 mmHg 52%
19:00 +21°C° 0 mm 6 m/s 737 mmHg 50%
20:00 +21°C° 0.1 mm 5 m/s 737 mmHg 51%
21:00 +21°C° 0.1 mm 5 m/s 737 mmHg 53%
22:00 +21°C° 0.1 mm 4 m/s 737 mmHg 54%
23:00 +20°C° 0 mm 4 m/s 737 mmHg 63%

Amanhã, 31 Julho, Sábado

Tempo Temperatura Precipitação Vento Pressão Humidade
00:00 +19°C° 0 mm 4 m/s 737 mmHg 72%
01:00 +18°C° 0 mm 3 m/s 737 mmHg 82%
02:00 +18°C° 0 mm 3 m/s 737 mmHg 85%
03:00 +17°C° 0 mm 3 m/s 738 mmHg 88%
04:00 +17°C° 0 mm 3 m/s 738 mmHg 92%
05:00 +19°C° 0 mm 3 m/s 738 mmHg 85%
06:00 +20°C° 0 mm 3 m/s 739 mmHg 79%
07:00 +22°C° 0 mm 3 m/s 739 mmHg 72%
08:00 +24°C° 0 mm 2 m/s 739 mmHg 66%
09:00 +26°C° 0 mm 2 m/s 739 mmHg 60%
10:00 +27°C° 0 mm 2 m/s 739 mmHg 54%
11:00 +28°C° 0 mm 2 m/s 739 mmHg 50%
12:00 +29°C° 0 mm 2 m/s 739 mmHg 46%
13:00 +30°C° 0 mm 3 m/s 739 mmHg 42%
14:00 +30°C° 0 mm 3 m/s 739 mmHg 45%
15:00 +29°C° 0 mm 3 m/s 739 mmHg 48%
16:00 +28°C° 0 mm 3 m/s 739 mmHg 51%
17:00 +28°C° 0 mm 2 m/s 739 mmHg 53%
18:00 +27°C° 0 mm 2 m/s 739 mmHg 56%
19:00 +26°C° 0 mm 1 m/s 739 mmHg 58%
20:00 +25°C° 0 mm 2 m/s 739 mmHg 61%
21:00 +24°C° 0 mm 2 m/s 739 mmHg 65%
22:00 +23°C° 0 mm 2 m/s 740 mmHg 68%
23:00 +21°C° 0 mm 3 m/s 739 mmHg 71%

Depois de amanhã, 1 Agosto, Domingo

Tempo Temperatura Precipitação Vento Pressão Humidade
00:00 +21°C° 0 mm 3 m/s 739 mmHg 75%
01:00 +21°C° 0 mm 3 m/s 739 mmHg 79%
02:00 +21°C° 0 mm 4 m/s 739 mmHg 78%
03:00 +21°C° 0 mm 4 m/s 739 mmHg 78%
04:00 +21°C° 0 mm 5 m/s 739 mmHg 77%
05:00 +22°C° 0 mm 5 m/s 739 mmHg 74%
06:00 +23°C° 0 mm 5 m/s 739 mmHg 71%
07:00 +25°C° 0 mm 4 m/s 739 mmHg 67%
08:00 +27°C° 0 mm 5 m/s 739 mmHg 59%
09:00 +28°C° 0 mm 5 m/s 739 mmHg 52%
10:00 +30°C° 0 mm 5 m/s 739 mmHg 44%
11:00 +32°C° 0 mm 5 m/s 739 mmHg 41%
12:00 +33°C° 0 mm 4 m/s 738 mmHg 39%
13:00 +34°C° 0 mm 4 m/s 738 mmHg 36%
14:00 +33°C° 0 mm 5 m/s 738 mmHg 40%
15:00 +30°C° 0 mm 5 m/s 738 mmHg 43%
16:00 +29°C° 0 mm 6 m/s 738 mmHg 47%
17:00 +28°C° 0 mm 5 m/s 739 mmHg 52%
18:00 +27°C° 0 mm 4 m/s 739 mmHg 56%
19:00 +26°C° 0 mm 2 m/s 739 mmHg 60%
20:00 +25°C° 0 mm 2 m/s 739 mmHg 62%
21:00 +24°C° 0 mm 2 m/s 739 mmHg 63%
22:00 +21°C° 0 mm 2 m/s 740 mmHg 64%
23:00 +21°C° 0 mm 2 m/s 740 mmHg 65%

2 Agosto, Segunda-feira

Tempo Temperatura Precipitação Vento Pressão Humidade
00:00 +21°C° 0 mm 2 m/s 740 mmHg 65%
01:00 +21°C° 0 mm 1 m/s 740 mmHg 66%
02:00 +21°C° 0 mm 1 m/s 740 mmHg 67%
03:00 +20°C° 0 mm 2 m/s 740 mmHg 68%
04:00 +19°C° 0 mm 2 m/s 740 mmHg 68%
05:00 +21°C° 0 mm 2 m/s 741 mmHg 64%
06:00 +22°C° 0 mm 3 m/s 741 mmHg 60%
07:00 +24°C° 0 mm 3 m/s 741 mmHg 55%
08:00 +25°C° 0 mm 4 m/s 741 mmHg 51%
09:00 +27°C° 0 mm 4 m/s 742 mmHg 46%
10:00 +28°C° 0 mm 5 m/s 742 mmHg 41%
11:00 +29°C° 0 mm 5 m/s 742 mmHg 39%
12:00 +29°C° 0 mm 6 m/s 742 mmHg 37%
13:00 +30°C° 0 mm 6 m/s 742 mmHg 34%
14:00 +30°C° 0 mm 6 m/s 742 mmHg 34%
15:00 +30°C° 0 mm 5 m/s 742 mmHg 33%
16:00 +30°C° 0 mm 5 m/s 742 mmHg 33%
17:00 +28°C° 0 mm 4 m/s 742 mmHg 39%
18:00 +27°C° 0 mm 3 m/s 742 mmHg 44%
19:00 +25°C° 0 mm 2 m/s 742 mmHg 49%
20:00 +24°C° 0 mm 2 m/s 742 mmHg 51%
21:00 +23°C° 0 mm 2 m/s 743 mmHg 52%
22:00 +22°C° 0 mm 1 m/s 743 mmHg 54%
23:00 +22°C° 0 mm 1 m/s 743 mmHg 55%

3 Agosto, Terça-feira

Tempo Temperatura Precipitação Vento Pressão Humidade
00:00 +21°C° 0 mm 1 m/s 743 mmHg 56%
01:00 +21°C° 0 mm 1 m/s 743 mmHg 57%
02:00 +20°C° 0 mm 2 m/s 743 mmHg 59%
03:00 +20°C° 0 mm 2 m/s 743 mmHg 60%
04:00 +19°C° 0 mm 2 m/s 743 mmHg 62%
05:00 +21°C° 0 mm 2 m/s 743 mmHg 59%
06:00 +24°C° 0 mm 3 m/s 744 mmHg 56%
07:00 +25°C° 0 mm 3 m/s 744 mmHg 53%
08:00 +27°C° 0 mm 3 m/s 744 mmHg 47%
09:00 +29°C° 0 mm 4 m/s 744 mmHg 42%
10:00 +32°C° 0 mm 4 m/s 744 mmHg 37%
11:00 +33°C° 0 mm 4 m/s 743 mmHg 34%
12:00 +34°C° 0 mm 5 m/s 743 mmHg 31%
13:00 +35°C° 0 mm 5 m/s 743 mmHg 29%
14:00 +35°C° 0 mm 5 m/s 743 mmHg 28%
15:00 +35°C° 0 mm 5 m/s 743 mmHg 28%
16:00 +35°C° 0 mm 4 m/s 742 mmHg 27%
17:00 +34°C° 0 mm 3 m/s 742 mmHg 32%
18:00 +31°C° 0 mm 2 m/s 742 mmHg 37%
19:00 +29°C° 0 mm 1 m/s 742 mmHg 42%
20:00 +28°C° 0 mm 1 m/s 742 mmHg 43%
21:00 +27°C° 0 mm 1 m/s 743 mmHg 43%
22:00 +26°C° 0 mm 1 m/s 743 mmHg 44%
23:00 +26°C° 0 mm 1 m/s 743 mmHg 46%

4 Agosto, Quarta-feira

Tempo Temperatura Precipitação Vento Pressão Humidade
00:00 +25°C° 0 mm 1 m/s 743 mmHg 47%
01:00 +24°C° 0 mm 2 m/s 742 mmHg 49%
02:00 +24°C° 0 mm 1 m/s 743 mmHg 51%
03:00 +23°C° 0 mm 1 m/s 743 mmHg 53%
04:00 +23°C° 0 mm 1 m/s 743 mmHg 55%
05:00 +24°C° 0 mm 1 m/s 743 mmHg 53%
06:00 +26°C° 0 mm 1 m/s 743 mmHg 50%
07:00 +27°C° 0 mm 2 m/s 744 mmHg 48%
08:00 +29°C° 0 mm 2 m/s 744 mmHg 44%
09:00 +31°C° 0 mm 2 m/s 744 mmHg 40%
10:00 +34°C° 0 mm 2 m/s 744 mmHg 36%
11:00 +35°C° 0 mm 2 m/s 744 mmHg 33%
12:00 +36°C° 0 mm 2 m/s 743 mmHg 30%
13:00 +37°C° 0 mm 2 m/s 743 mmHg 27%
14:00 +37°C° 0 mm 3 m/s 743 mmHg 26%
15:00 +37°C° 0 mm 3 m/s 743 mmHg 26%
16:00 +37°C° 0 mm 3 m/s 743 mmHg 25%
17:00 +35°C° 0 mm 3 m/s 743 mmHg 31%
18:00 +32°C° 0 mm 2 m/s 743 mmHg 36%
19:00 +30°C° 0 mm 2 m/s 743 mmHg 42%
20:00 +28°C° 0.1 mm 2 m/s 743 mmHg 48%
21:00 +26°C° 0.1 mm 3 m/s 743 mmHg 55%
22:00 +24°C° 0.1 mm 3 m/s 743 mmHg 61%
23:00 +24°C° 0.1 mm 3 m/s 743 mmHg 65%
Mostrar mais

Necessitamos do seu Consentimento

A Meteoprog e os seus Fornecedores de Serviços podem armazenar e aceder a dados pessoais como cookies, identificadores do dispositivo ou outras tecnologias semelhantes existentes no seu dispositivo e processar estes dados para personalizar conteúdos e anúncios, assim como funcionalidades nas redes sociais e análise de tráfego.

  • Armazenar e/ou aceder a informações no seu dispositivo

    Os cookies, identificadores do dispositivo ou outras informações podem ser armazenados ou acedidos no seu dispositivo, para os fins acima indicados.

  • Anúncios e conteúdos personalizados, medição de anúncios e conteúdos, dados sobre o público-alvo e desenvolvimento de produtos

    Os anúncios e os conteúdos podem ser personalizados com base num perfil. Podem ser adicionados dados adicionais para uma maior personalização dos anúncios e dos conteúdos. A eficácia dos anúncios e dos conteúdos pode ser medida. Podem ser obtidas informações sobre o público que visualizou os anúncios e os conteúdos. Estes dados podem ser usados para desenvolver ou melhorar sistemas, softwares ou a experiência do utilizador.

Ao clicar em "Eu concordo”, permitirá o uso de cookies, identificadores do dispositivo e web beacons mencionados ou outras tecnologias semelhantes. As configurações do navegador do seu dispositivo podem ser alteradas.

Para certos fins, podem ser invocados interesses legítimos ao invés de consentimento. Pode ler mais informação sobre este assunto na nossa Política de Privacidade e Cookies.